FIN7VB ENGM-EFHK

Flight info

Callsign FIN7VB
Flight time 1h 3m
Altitude 37000
Route MASEV DCT OTKIL Y368 LAKUT
Aircraft A320/M-SDE3FGHIRWY/LB1

Departure

Time 2026-05-07 15:59
Airport Oslo-Gardermoen International Airport (ENGM)

Arrival

Time 2026-05-07 17:02
Airport Helsinki Vantaa Airport (EFHK)
Time Latitude Longitude Altitude Speed Heading
2026-05-07 15:43 60.19720 11.10012 681 ft 0 kts 106°
2026-05-07 15:51 60.19722 11.10000 677 ft 3 kts 106°
2026-05-07 15:51 60.19729 11.09954 682 ft 3 kts 106°
2026-05-07 15:51 60.19733 11.09920 682 ft 0 kts 106°
2026-05-07 15:54 60.19733 11.09923 685 ft 2 kts 105°
2026-05-07 15:54 60.19755 11.09918 682 ft 8 kts 324°
2026-05-07 15:54 60.19834 11.09833 684 ft 14 kts 15°
2026-05-07 15:55 60.19931 11.09897 683 ft 15 kts 16°
2026-05-07 15:55 60.19999 11.09825 681 ft 13 kts 290°
2026-05-07 15:55 60.20025 11.09639 683 ft 15 kts 286°
2026-05-07 15:55 60.20057 11.09420 680 ft 18 kts 286°
2026-05-07 15:56 60.20092 11.09169 680 ft 20 kts 286°
2026-05-07 15:56 60.20129 11.08918 677 ft 16 kts 296°
2026-05-07 15:56 60.20213 11.08928 680 ft 12 kts 16°
2026-05-07 15:56 60.20311 11.08984 682 ft 18 kts 15°
2026-05-07 15:57 60.20436 11.09053 682 ft 19 kts 17°
2026-05-07 15:57 60.20566 11.09131 680 ft 17 kts 16°
2026-05-07 15:57 60.20650 11.09035 679 ft 17 kts 288°
2026-05-07 15:57 60.20681 11.08821 678 ft 15 kts 287°
2026-05-07 15:58 60.20669 11.08628 679 ft 16 kts 212°
2026-05-07 15:58 60.20644 11.08610 679 ft 3 kts 196°
2026-05-07 15:58 60.20465 11.08504 678 ft 63 kts 196°
2026-05-07 15:58 60.19823 11.08134 675 ft 127 kts 195°
2026-05-07 15:59 60.18813 11.07547 819 ft 161 kts 198°
2026-05-07 15:59 60.17753 11.06904 1544 ft 159 kts 198°
2026-05-07 15:59 60.16726 11.05930 2009 ft 175 kts 220°
2026-05-07 15:59 60.15946 11.03879 2371 ft 196 kts 246°
2026-05-07 16:00 60.15400 11.01229 2761 ft 218 kts 248°
2026-05-07 16:00 60.14767 10.98251 3079 ft 246 kts 247°
2026-05-07 16:00 60.14271 10.94862 3707 ft 259 kts 267°
2026-05-07 16:00 60.14567 10.91287 4594 ft 263 kts 291°
2026-05-07 16:01 60.15588 10.88309 5516 ft 265 kts 318°
2026-05-07 16:01 60.17191 10.86484 6445 ft 269 kts 343°
2026-05-07 16:01 60.19067 10.86246 7244 ft 276 kts 10°
2026-05-07 16:01 60.20829 10.87809 8051 ft 283 kts 38°
2026-05-07 16:02 60.22053 10.90909 8913 ft 289 kts 65°
2026-05-07 16:02 60.22437 10.94884 9707 ft 295 kts 91°
2026-05-07 16:02 60.22342 10.99057 10381 ft 305 kts 93°
2026-05-07 16:02 60.22227 11.03480 10649 ft 328 kts 93°
2026-05-07 16:03 60.22102 11.08167 11147 ft 341 kts 93°
2026-05-07 16:03 60.21974 11.12973 11858 ft 347 kts 93°
2026-05-07 16:03 60.21849 11.17847 12592 ft 352 kts 93°
2026-05-07 16:03 60.21727 11.22795 13306 ft 357 kts 93°
2026-05-07 16:04 60.21604 11.27809 14009 ft 361 kts 93°
2026-05-07 16:04 60.21476 11.32830 14601 ft 366 kts 93°
2026-05-07 16:04 60.21340 11.37989 15203 ft 372 kts 93°
2026-05-07 16:04 60.21200 11.43216 15784 ft 377 kts 93°
2026-05-07 16:05 60.21056 11.48525 16361 ft 383 kts 93°
2026-05-07 16:05 60.20909 11.53909 16945 ft 388 kts 93°
2026-05-07 16:05 60.20759 11.59367 17520 ft 393 kts 93°
2026-05-07 16:05 60.20604 11.64890 18083 ft 398 kts 93°
2026-05-07 16:06 60.20442 11.70500 18614 ft 404 kts 93°
2026-05-07 16:06 60.20275 11.76168 19123 ft 408 kts 93°
2026-05-07 16:06 60.20109 11.81825 19640 ft 412 kts 93°
2026-05-07 16:06 60.19938 11.87598 20139 ft 416 kts 93°
2026-05-07 16:07 60.19760 11.93431 20663 ft 420 kts 93°
2026-05-07 16:07 60.19577 11.99337 21173 ft 424 kts 93°
2026-05-07 16:07 60.19391 12.05290 21681 ft 428 kts 93°
2026-05-07 16:07 60.19201 12.11309 22202 ft 432 kts 93°
2026-05-07 16:08 60.19006 12.17361 22720 ft 437 kts 93°
2026-05-07 16:08 60.18804 12.23478 23217 ft 441 kts 93°
2026-05-07 16:08 60.18597 12.29662 23691 ft 445 kts 93°
2026-05-07 16:08 60.18391 12.35817 24067 ft 449 kts 93°
2026-05-07 16:09 60.18174 12.42173 24476 ft 452 kts 94°
2026-05-07 16:09 60.17958 12.48420 24859 ft 455 kts 94°
2026-05-07 16:09 60.17914 12.54802 25240 ft 458 kts 84°
2026-05-07 16:09 60.18287 12.61160 25614 ft 460 kts 80°
2026-05-07 16:10 60.18719 12.67541 25995 ft 463 kts 80°
2026-05-07 16:10 60.19153 12.73983 26357 ft 466 kts 80°
2026-05-07 16:10 60.19583 12.80455 26710 ft 469 kts 81°
2026-05-07 16:10 60.20008 12.86961 27050 ft 472 kts 81°
2026-05-07 16:11 60.20427 12.93525 27404 ft 475 kts 81°
2026-05-07 16:11 60.20845 13.00132 27744 ft 477 kts 81°
2026-05-07 16:11 60.21264 13.06770 28083 ft 480 kts 81°
2026-05-07 16:11 60.21686 13.13463 28412 ft 483 kts 81°
2026-05-07 16:12 60.22102 13.20110 28744 ft 486 kts 81°
2026-05-07 16:12 60.22521 13.26879 29057 ft 489 kts 81°
2026-05-07 16:12 60.22939 13.33672 29375 ft 491 kts 81°
2026-05-07 16:12 60.23359 13.40517 29678 ft 493 kts 81°
2026-05-07 16:13 60.23779 13.47404 29986 ft 496 kts 82°
2026-05-07 16:13 60.24195 13.54305 30242 ft 499 kts 82°
2026-05-07 16:13 60.24610 13.61275 30483 ft 501 kts 82°
2026-05-07 16:13 60.25017 13.68262 30726 ft 503 kts 82°
2026-05-07 16:14 60.25421 13.75279 30969 ft 505 kts 82°
2026-05-07 16:14 60.25827 13.82312 31192 ft 507 kts 82°
2026-05-07 16:14 60.26229 13.89290 31441 ft 508 kts 82°
2026-05-07 16:14 60.26630 13.96365 31767 ft 508 kts 82°
2026-05-07 16:15 60.27024 14.03425 32098 ft 507 kts 82°
2026-05-07 16:15 60.27415 14.10488 32408 ft 507 kts 82°
2026-05-07 16:15 60.27806 14.17549 32720 ft 507 kts 82°
2026-05-07 16:15 60.28191 14.24609 33039 ft 506 kts 82°
2026-05-07 16:16 60.28572 14.31671 33351 ft 506 kts 83°
2026-05-07 16:16 60.28947 14.38713 33658 ft 506 kts 83°
2026-05-07 16:16 60.29319 14.45763 33975 ft 505 kts 83°
2026-05-07 16:16 60.29687 14.52809 34246 ft 505 kts 83°
2026-05-07 16:17 60.30049 14.59852 34536 ft 504 kts 83°
2026-05-07 16:17 60.30408 14.66871 34806 ft 503 kts 83°
2026-05-07 16:17 60.30764 14.73883 35074 ft 502 kts 84°
2026-05-07 16:17 60.31115 14.80887 35335 ft 501 kts 84°
2026-05-07 16:18 60.31455 14.87782 35580 ft 500 kts 84°
2026-05-07 16:18 60.31796 14.94763 35819 ft 500 kts 84°
2026-05-07 16:18 60.32134 15.01734 36068 ft 499 kts 84°
2026-05-07 16:18 60.32469 15.08693 36284 ft 498 kts 85°
2026-05-07 16:19 60.32798 15.15652 36496 ft 498 kts 85°
2026-05-07 16:19 60.33121 15.22607 36704 ft 497 kts 85°
2026-05-07 16:19 60.33441 15.29564 36913 ft 497 kts 85°
2026-05-07 16:19 60.33758 15.36497 37061 ft 496 kts 85°
2026-05-07 16:20 60.34073 15.43436 37090 ft 494 kts 85°
2026-05-07 16:20 60.34694 15.57234 37084 ft 493 kts 85°
2026-05-07 16:21 60.35301 15.71028 37086 ft 492 kts 85°
2026-05-07 16:21 60.35885 15.84737 37087 ft 492 kts 86°
2026-05-07 16:22 60.36452 15.98551 37094 ft 493 kts 86°
2026-05-07 16:22 60.37005 16.12354 37098 ft 493 kts 86°
2026-05-07 16:23 60.37550 16.26174 37100 ft 493 kts 86°
2026-05-07 16:23 60.38078 16.39903 37097 ft 493 kts 86°
2026-05-07 16:24 60.38590 16.53742 37101 ft 493 kts 86°
2026-05-07 16:24 60.39090 16.67596 37104 ft 493 kts 86°
2026-05-07 16:25 60.39567 16.81448 37105 ft 494 kts 87°
2026-05-07 16:25 60.40036 16.95209 37105 ft 493 kts 87°
2026-05-07 16:26 60.40502 17.09074 37110 ft 493 kts 87°
2026-05-07 16:26 60.40943 17.22913 37106 ft 493 kts 87°
2026-05-07 16:27 60.41365 17.36785 37110 ft 493 kts 88°
2026-05-07 16:27 60.41775 17.50624 37110 ft 493 kts 88°
2026-05-07 16:28 60.42171 17.64394 37118 ft 493 kts 88°
2026-05-07 16:28 60.42563 17.78245 37118 ft 493 kts 88°
2026-05-07 16:29 60.42936 17.92097 37123 ft 493 kts 88°
2026-05-07 16:29 60.43291 18.05961 37125 ft 493 kts 88°
2026-05-07 16:30 60.43626 18.19843 37125 ft 493 kts 89°
2026-05-07 16:30 60.43957 18.33713 37126 ft 493 kts 89°
2026-05-07 16:31 60.44275 18.47594 37128 ft 493 kts 89°
2026-05-07 16:31 60.44571 18.61382 37127 ft 493 kts 89°
2026-05-07 16:32 60.44858 18.75287 37129 ft 493 kts 89°
2026-05-07 16:32 60.45130 18.89202 37129 ft 494 kts 89°
2026-05-07 16:33 60.45379 19.03112 37131 ft 494 kts 90°
2026-05-07 16:33 60.45611 19.16944 37131 ft 494 kts 90°
2026-05-07 16:34 60.45845 19.30873 37134 ft 494 kts 90°
2026-05-07 16:34 60.46064 19.44797 37134 ft 494 kts 90°
2026-05-07 16:35 60.46255 19.58715 37134 ft 494 kts 90°
2026-05-07 16:35 60.46440 19.72655 37131 ft 494 kts 90°
2026-05-07 16:36 60.46611 19.86569 37131 ft 494 kts 91°
2026-05-07 16:36 60.46764 20.00502 37125 ft 494 kts 91°
2026-05-07 16:37 60.46900 20.14333 37128 ft 494 kts 91°
2026-05-07 16:37 60.47027 20.28278 37125 ft 494 kts 91°
2026-05-07 16:38 60.47139 20.42217 37125 ft 495 kts 91°
2026-05-07 16:38 60.47236 20.56175 37129 ft 495 kts 91°
2026-05-07 16:39 60.47320 20.70148 36103 ft 499 kts 92°
2026-05-07 16:39 60.47354 20.77268 34804 ft 505 kts 93°
2026-05-07 16:39 60.47386 20.84187 34508 ft 488 kts 93°
2026-05-07 16:39 60.47416 20.91016 34117 ft 483 kts 93°
2026-05-07 16:40 60.47439 20.97827 33458 ft 483 kts 94°
2026-05-07 16:40 60.47458 21.04632 32897 ft 481 kts 94°
2026-05-07 16:40 60.47473 21.11416 32315 ft 480 kts 94°
2026-05-07 16:40 60.47480 21.15897 31936 ft 479 kts 94°
2026-05-07 16:41 60.47489 21.22655 31372 ft 478 kts 95°
2026-05-07 16:41 60.47495 21.29389 30811 ft 477 kts 95°
2026-05-07 16:41 60.47499 21.36107 30316 ft 475 kts 95°
2026-05-07 16:41 60.47493 21.42783 29799 ft 471 kts 95°
2026-05-07 16:42 60.47464 21.49384 29345 ft 466 kts 95°
2026-05-07 16:42 60.47417 21.55922 28891 ft 461 kts 96°
2026-05-07 16:42 60.47362 21.62309 28448 ft 456 kts 96°
2026-05-07 16:42 60.47304 21.68789 28004 ft 453 kts 95°
2026-05-07 16:43 60.47249 21.75093 27565 ft 449 kts 95°
2026-05-07 16:43 60.47192 21.81397 27118 ft 446 kts 95°
2026-05-07 16:43 60.47133 21.87669 26675 ft 443 kts 95°
2026-05-07 16:43 60.47073 21.93908 26217 ft 441 kts 95°
2026-05-07 16:44 60.47015 22.00104 25765 ft 438 kts 95°
2026-05-07 16:44 60.46951 22.06265 25294 ft 437 kts 95°
2026-05-07 16:44 60.46883 22.12407 24826 ft 435 kts 95°
2026-05-07 16:44 60.46813 22.18521 24352 ft 434 kts 94°
2026-05-07 16:45 60.46742 22.24632 23868 ft 433 kts 94°
2026-05-07 16:45 60.46670 22.30658 23333 ft 432 kts 94°
2026-05-07 16:45 60.46592 22.36743 22853 ft 429 kts 94°
2026-05-07 16:45 60.46511 22.42771 22374 ft 426 kts 94°
2026-05-07 16:46 60.46430 22.48751 21913 ft 424 kts 94°
2026-05-07 16:46 60.46349 22.54706 21447 ft 421 kts 94°
2026-05-07 16:46 60.46267 22.60618 20996 ft 418 kts 94°
2026-05-07 16:46 60.46179 22.66492 20537 ft 416 kts 94°
2026-05-07 16:47 60.46088 22.72329 20089 ft 414 kts 94°
2026-05-07 16:47 60.45998 22.78141 19689 ft 410 kts 94°
2026-05-07 16:47 60.45906 22.83901 19245 ft 408 kts 94°
2026-05-07 16:47 60.45813 22.89611 18804 ft 406 kts 94°
2026-05-07 16:48 60.45715 22.95290 18510 ft 400 kts 94°
2026-05-07 16:48 60.45615 23.00906 18052 ft 398 kts 94°
2026-05-07 16:48 60.45511 23.06422 17624 ft 395 kts 94°
2026-05-07 16:48 60.45406 23.11942 17072 ft 388 kts 93°
2026-05-07 16:49 60.45304 23.17315 16593 ft 375 kts 93°
2026-05-07 16:49 60.45208 23.22501 16205 ft 361 kts 92°
2026-05-07 16:49 60.45115 23.27503 15831 ft 352 kts 92°
2026-05-07 16:49 60.45019 23.32448 15455 ft 352 kts 92°
2026-05-07 16:50 60.44920 23.37394 15086 ft 351 kts 92°
2026-05-07 16:50 60.44819 23.42341 14707 ft 350 kts 92°
2026-05-07 16:50 60.44717 23.47257 14325 ft 350 kts 92°
2026-05-07 16:50 60.44612 23.52185 13948 ft 349 kts 92°
2026-05-07 16:51 60.44505 23.57093 13537 ft 348 kts 91°
2026-05-07 16:51 60.44398 23.61976 13146 ft 346 kts 91°
2026-05-07 16:51 60.44292 23.66828 12760 ft 343 kts 92°
2026-05-07 16:51 60.44186 23.71599 12376 ft 347 kts 92°
2026-05-07 16:52 60.44071 23.76518 11973 ft 350 kts 92°
2026-05-07 16:52 60.43954 23.81376 11718 ft 340 kts 92°
2026-05-07 16:52 60.43841 23.86148 11216 ft 340 kts 91°
2026-05-07 16:52 60.43991 23.90851 11002 ft 330 kts 82°
2026-05-07 16:53 60.44255 23.95440 10661 ft 325 kts 82°
2026-05-07 16:53 60.44518 23.99960 10362 ft 320 kts 82°
2026-05-07 16:53 60.44773 24.04356 10230 ft 309 kts 82°
2026-05-07 16:53 60.45020 24.08602 10087 ft 299 kts 82°
2026-05-07 16:54 60.45259 24.12752 9797 ft 294 kts 83°
2026-05-07 16:54 60.45492 24.16859 9447 ft 291 kts 83°
2026-05-07 16:54 60.45721 24.20936 9042 ft 291 kts 83°
2026-05-07 16:54 60.45944 24.24935 8528 ft 287 kts 83°
2026-05-07 16:55 60.46166 24.28935 8016 ft 284 kts 83°
2026-05-07 16:55 60.46386 24.32887 7517 ft 280 kts 83°
2026-05-07 16:55 60.46594 24.36688 7276 ft 263 kts 83°
2026-05-07 16:55 60.46793 24.40327 7045 ft 258 kts 83°
2026-05-07 16:56 60.46994 24.43939 6743 ft 257 kts 83°
2026-05-07 16:56 60.47137 24.47528 6315 ft 258 kts 91°
2026-05-07 16:56 60.46880 24.54815 5120 ft 253 kts 94°
2026-05-07 16:57 60.46730 24.58306 4704 ft 244 kts 94°
2026-05-07 16:57 60.46580 24.61702 4322 ft 240 kts 94°
2026-05-07 16:57 60.46430 24.65088 3909 ft 241 kts 95°
2026-05-07 16:57 60.46281 24.68428 3529 ft 235 kts 94°
2026-05-07 16:58 60.46140 24.71648 3151 ft 228 kts 94°
2026-05-07 16:58 60.46006 24.74736 3043 ft 212 kts 94°
2026-05-07 16:58 60.45883 24.77601 2975 ft 199 kts 94°
2026-05-07 16:58 60.45736 24.80353 2865 ft 195 kts 102°
2026-05-07 16:59 60.45213 24.82865 2755 ft 194 kts 125°
2026-05-07 16:59 60.44276 24.84784 2673 ft 191 kts 147°
2026-05-07 16:59 60.43100 24.86075 2531 ft 192 kts 155°
2026-05-07 16:59 60.41926 24.87284 2286 ft 186 kts 155°
2026-05-07 17:00 60.40814 24.88432 2060 ft 171 kts 155°
2026-05-07 17:00 60.39799 24.89480 1832 ft 158 kts 156°
2026-05-07 17:00 60.38848 24.90461 1614 ft 149 kts 155°
2026-05-07 17:00 60.37938 24.91398 1410 ft 145 kts 156°
2026-05-07 17:01 60.37059 24.92302 1191 ft 142 kts 156°
2026-05-07 17:01 60.36192 24.93195 963 ft 137 kts 156°
2026-05-07 17:01 60.35350 24.94060 750 ft 134 kts 156°
2026-05-07 17:01 60.34526 24.94914 542 ft 132 kts 156°
2026-05-07 17:02 60.33715 24.95752 379 ft 131 kts 156°
2026-05-07 17:02 60.32901 24.96588 194 ft 130 kts 156°
2026-05-07 17:02 60.32198 24.97293 156 ft 90 kts 153°
2026-05-07 17:02 60.31795 24.97714 152 ft 44 kts 153°
2026-05-07 17:03 60.31575 24.97933 153 ft 24 kts 154°
2026-05-07 17:03 60.31448 24.97958 154 ft 16 kts 214°
2026-05-07 17:03 60.31409 24.97837 155 ft 0 kts 243°
2026-05-07 17:04 60.31406 24.97787 156 ft 11 kts 281°
2026-05-07 17:04 60.31475 24.97709 156 ft 11 kts 329°
2026-05-07 17:05 60.31537 24.97639 156 ft 12 kts 333°
2026-05-07 17:05 60.31620 24.97554 158 ft 11 kts 332°
2026-05-07 17:05 60.31631 24.97459 163 ft 6 kts 255°
2026-05-07 17:05 60.31642 24.97385 166 ft 6 kts 310°
2026-05-07 17:06 60.31696 24.97302 166 ft 9 kts 281°
2026-05-07 17:06 60.31680 24.97237 166 ft 3 kts 242°
2026-05-07 17:06 60.31674 24.97215 166 ft 1 kts 242°
2026-05-07 17:06 60.31672 24.97207 166 ft 0 kts 242°